Location: La Pernelle
(49.6188°N, 1.2999°W)
Time: 09:59:37
(UTC+00:00)

Terra - Pass Details

Date: 12 June 2021
Orbit: 701 x 703 km, 98.2° (Epoch: 03 August)

Event Time Altitude Azimuth Distance (km) Brightness Sun altitude
Exits shadow 23:09:33 - 223° (SW) 2,228 4.1 -16.1°
Reaches altitude 10° 23:09:45 10° 224° (SW) 2,169 4.0 -16.1°
Maximum altitude 23:13:07 19° 270° (W) 1,647 3.9 -16.3°
Drops below altitude 10° 23:16:31 10° 315° (NW) 2,182 5.2 -16.4°
Sets 23:19:25 0° 333° (NNW) 3,106 6.7 -16.5°
